TimeEDT,TemperatureF,Dew PointF,Humidity,Sea Level PressureIn,VisibilityMPH,Wind Direction,Wind SpeedMPH,Gust SpeedMPH,PrecipitationIn,Events,Conditions,WindDirDegrees,DateUTC
12:54 AM,73.0,70.0,90,29.96,10.0,Calm,Calm,-,N/A,,Overcast,0,2013-08-08 04:54:00
1:54 AM,73.0,70.0,90,29.95,10.0,Calm,Calm,-,N/A,,Overcast,0,2013-08-08 05:54:00
2:54 AM,73.0,70.0,90,29.95,10.0,Calm,Calm,-,N/A,,Mostly Cloudy,0,2013-08-08 06:54:00
3:54 AM,72.0,71.1,97,29.95,10.0,Calm,Calm,-,N/A,,Overcast,0,2013-08-08 07:54:00
4:54 AM,73.0,70.0,90,29.95,10.0,Variable,3.5,-,0.01,Rain,Light Rain,0,2013-08-08 08:54:00
5:43 AM,73.4,69.8,88,29.98,10.0,Calm,Calm,-,0.00,,Mostly Cloudy,0,2013-08-08 09:43:00
5:54 AM,73.0,70.0,90,29.95,10.0,Calm,Calm,-,0.00,,Mostly Cloudy,0,2013-08-08 09:54:00
6:54 AM,73.0,69.1,87,29.96,10.0,Calm,Calm,-,N/A,,Scattered Clouds,0,2013-08-08 10:54:00
7:54 AM,72.0,71.1,97,29.96,10.0,Calm,Calm,-,N/A,,Mostly Cloudy,0,2013-08-08 11:54:00
8:54 AM,75.9,72.0,87,29.98,10.0,Calm,Calm,-,N/A,,Mostly Cloudy,0,2013-08-08 12:54:00
9:54 AM,80.1,71.1,74,29.97,10.0,SSW,5.8,-,N/A,,Mostly Cloudy,210,2013-08-08 13:54:00
10:35 AM,82.4,71.6,70,30.00,10.0,SSW,8.1,-,N/A,,Mostly Cloudy,200,2013-08-08 14:35:00
10:54 AM,82.0,71.1,69,29.97,10.0,SSW,9.2,-,N/A,,Mostly Cloudy,200,2013-08-08 14:54:00
11:44 AM,82.4,71.6,70,30.01,10.0,SW,11.5,-,N/A,,Mostly Cloudy,220,2013-08-08 15:44:00
11:54 AM,84.0,72.0,67,29.98,10.0,SW,10.4,-,N/A,,Mostly Cloudy,220,2013-08-08 15:54:00
12:54 PM,82.0,71.1,69,29.98,10.0,SSW,10.4,-,N/A,,Mostly Cloudy,210,2013-08-08 16:54:00
1:54 PM,84.0,71.1,65,29.96,10.0,SSW,13.8,-,N/A,,Overcast,200,2013-08-08 17:54:00
2:54 PM,78.1,73.0,84,29.97,10.0,Variable,3.5,-,0.00,,Mostly Cloudy,0,2013-08-08 18:54:00
3:54 PM,79.0,72.0,79,29.96,10.0,SSW,6.9,-,0.00,Rain,Light Rain,210,2013-08-08 19:54:00
4:14 PM,78.8,71.6,78,29.98,10.0,SSW,4.6,-,0.00,,Overcast,210,2013-08-08 20:14:00
4:54 PM,80.1,73.0,79,29.93,10.0,SW,3.5,-,0.00,,Mostly Cloudy,220,2013-08-08 20:54:00
5:54 PM,80.1,73.0,79,29.93,10.0,WSW,3.5,-,N/A,,Overcast,240,2013-08-08 21:54:00
6:54 PM,77.0,73.0,88,29.93,9.0,SSW,5.8,-,0.00,,Overcast,200,2013-08-08 22:54:00
7:54 PM,77.0,73.0,88,29.94,10.0,SW,9.2,-,N/A,,Mostly Cloudy,220,2013-08-08 23:54:00
8:54 PM,75.9,73.9,94,29.94,10.0,Calm,Calm,-,N/A,,Overcast,0,2013-08-09 00:54:00
9:54 PM,73.9,72.0,93,29.94,9.0,South,8.1,-,0.01,Rain,Light Rain,180,2013-08-09 01:54:00
10:54 PM,73.0,73.0,100,29.95,7.0,SW,3.5,-,0.03,,Overcast,220,2013-08-09 02:54:00
11:54 PM,73.0,73.0,100,29.94,7.0,Calm,Calm,-,0.01,,Mostly Cloudy,0,2013-08-09 03:54:00